Home   Weather   El Monte   Past weeks

Flag for USA Past Weather in El Monte, California, USA — Yesterday and Last 2 Weeks

Now
62 °F

Broken clouds.


Feels Like: 62 °F
Forecast: 47 / 63 °F
Wind: No wind

Location: Fullerton Municipal Airport

Current Time: Dec 6, 2016 at 12:10:23 pm

Latest Report: Dec 6, 2016 at 10:53 am


Visibility: 10 mi

Pressure: 29.99 "Hg

Humidity: 67%

Dew Point: 51 °F

Location of El MonteLocation

Past Weather in El Monte — Graph

°F

El Monte Temperature Yesterday

Maximum temperature yesterday: 67 °F (at 1:53 pm)
Minimum temperature yesterday: 47 °F (at 4:53 am)
Average temperature yesterday: 56 °F

High & Low Weather Summary for the Past Weeks

 TemperatureHumidityPressure
High83 °F (Nov 24, 1:53 pm)93% (Nov 28, 1:53 am)30.16 "Hg (Nov 28, 1:53 am)
Low42 °F (Dec 4, 5:53 am)7% (Nov 24, 2:53 pm)29.82 "Hg (Nov 28, 3:53 pm)
Average58 °F56%30.01 "Hg
* Reported Nov 21 10:53 am — Dec 6 10:53 am, El Monte, Weather by CustomWeather, © 2016

Note: Actual official high and low records may vary slightly from our data, if they occured in-between our weather recording intervals... More about our weather records

Advertising

El Monte Weather History for the Previous 24 Hours

Scroll right to see more
 ConditionsComfort  
Time TempWeatherWind HumidityBarometerVisibility
10:53 am
Tue, Dec 6
62 °FBroken clouds.No wind67%29.99 "Hg10 mi
9:53 am61 °FPartly sunny.No wind67%30.01 "Hg7 mi
8:53 am59 °FOvercast.5 mph75%30.00 "Hg5 mi
7:53 am55 °FFog.No wind87%29.99 "Hg5 mi
6:53 am53 °FFog.No wind89%29.98 "Hg5 mi
5:53 am53 °FPassing clouds.3 mph89%29.96 "Hg7 mi
4:53 am55 °FOvercast.5 mph83%29.95 "Hg9 mi
3:53 am55 °FOvercast.3 mph83%29.95 "Hg10 mi
2:53 am54 °FOvercast.5 mph86%29.96 "Hg10 mi
1:53 am56 °FOvercast.3 mph84%29.96 "Hg10 mi
12:53 am56 °FOvercast.3 mph87%29.96 "Hg10 mi
11:53 pm
Mon, Dec 5
56 °FOvercast.3 mph87%29.97 "Hg10 mi
10:53 pm56 °FOvercast.3 mph87%29.96 "Hg9 mi
9:53 pm56 °FMostly cloudy.3 mph87%29.96 "Hg8 mi
8:53 pm54 °FPassing clouds.No wind90%29.95 "Hg8 mi
7:53 pm55 °FClear.No wind90%29.94 "Hg8 mi
6:53 pm57 °FClear.No wind87%29.93 "Hg9 mi
5:53 pm59 °FClear.3 mph81%29.93 "Hg10 mi
4:53 pm60 °FPassing clouds.6 mph78%29.91 "Hg10 mi
3:53 pm63 °FSunny.8 mph73%29.91 "Hg10 mi
2:53 pm65 °FSunny.7 mph66%29.89 "Hg10 mi
1:53 pm67 °FSunny.3 mph55%29.90 "Hg10 mi
12:53 pm65 °FPartly sunny.No wind54%29.90 "Hg10 mi
Weather by CustomWeather, © 2016

See weather overviewHow to use our weather pages